Weather History for KRMG - September, 2012

Change the Weather History Date:

Sunday, September 30, 2012

  Actual Average Record
Temperature  
Mean Temperature 64 °F 67 °F  
Max Temperature 72 °F 79 °F 87 °F (2005)
Min Temperature 55 °F 55 °F 43 °F (2003)
Degree Days  
Heating Degree Days 2 2  
Month to date heating degree days 13  
Since 1 July heating degree days 14  
Cooling Degree Days 0 4  
Month to date cooling degree days 224  
Year to date cooling degree days 1590  
Growing Degree Days 14 (Base 50)    
Moisture  
Dew Point 63 °F    
Average Humidity 93    
Maximum Humidity 100    
Minimum Humidity 69    
Precipitation  
Precipitation 1.18 in 0.14 in 1.18 in (2012)
Month to date precipitation 3.41  
Year to date precipitation 38.83  
Sea Level Pressure  
Sea Level Pressure 29.83 in    
Wind  
Wind Speed 2 mph (NE)    
Max Wind Speed 7 mph    
Max Gust Speed -    
Visibility 6 miles    
Events Rain    
T = Trace of Precipitation, MM = Missing Value Source: NWS Daily Summary

Daily Weather History Graph

Daily Weather History Graph

Search for Another Location

Airport or City:

Trip Planner

Search our weather history database for the weather conditions in past years. The results will help you decide how hot, cold, wet, or windy it might be!

Date:

Astronomy

Sep. 30, 2012 Rise Set
Actual Time 7:34 AM EDT 7:25 PM EDT
Civil Twilight 7:09 AM EDT 7:50 PM EDT
Nautical Twilight 6:40 AM EDT 8:19 PM EDT
Astronomical Twilight 6:11 AM EDT 8:48 PM EDT
Moon 7:33 PM EDT (9/30) 8:01 AM EDT (9/30)
Length of Visible Light 12h 40m
Length of Day
11h 50m
Full, 100% of the Moon is Illuminated
Sep 30
Full
Oct 8
Last Quarter
Oct 15
New
Oct 21
First Quarter
Oct 29
Full

Hourly Weather History & Observations

Time (EDT) Temp. Dew Point Humidity Pressure Visibility Wind Dir Wind Speed Gust Speed Precip Events Conditions
12:53 AM 64.0 °F 59.0 °F 84% 29.91 in 10.0 mi North 3.5 mph - N/A   Clear
1:53 AM 61.0 °F 57.9 °F 90% 29.90 in 10.0 mi Calm Calm - N/A   Clear
2:53 AM 59.0 °F 57.0 °F 93% 29.90 in 10.0 mi NNW 3.5 mph - N/A   Clear
3:53 AM 57.9 °F 55.9 °F 93% 29.88 in 10.0 mi Calm Calm - N/A   Clear
4:53 AM 57.9 °F 55.9 °F 93% 29.88 in 10.0 mi North 3.5 mph - N/A   Clear
5:53 AM 57.0 °F 55.9 °F 96% 29.88 in 10.0 mi Calm Calm - N/A   Clear
6:53 AM 55.9 °F 55.9 °F 100% 29.87 in 9.0 mi ENE 3.5 mph - N/A   Clear
7:53 AM 57.0 °F 55.9 °F 96% 29.88 in 9.0 mi Calm Calm - N/A   Clear
8:53 AM 57.9 °F 57.0 °F 97% 29.89 in 9.0 mi Calm Calm - N/A   Clear
9:53 AM 61.0 °F 57.0 °F 87% 29.89 in 10.0 mi NNE 4.6 mph - N/A   Clear
10:53 AM 64.0 °F 59.0 °F 84% 29.89 in 10.0 mi Calm Calm - N/A   Partly Cloudy
11:53 AM 66.9 °F 60.1 °F 79% 29.88 in 10.0 mi North 3.5 mph - N/A   Clear
12:53 PM 69.1 °F 61.0 °F 75% 29.87 in 10.0 mi NE 4.6 mph - N/A   Clear
1:53 PM 70.0 °F 62.1 °F 76% 29.85 in 10.0 mi Calm Calm - N/A   Overcast
2:53 PM 71.1 °F 63.0 °F 75% 29.81 in 10.0 mi ENE 3.5 mph - N/A   Overcast
3:53 PM 72.0 °F 64.0 °F 76% 29.80 in 10.0 mi NNE 4.6 mph - N/A   Partly Cloudy
4:09 PM 71.6 °F 64.4 °F 78% 29.82 in 10.0 mi NNE 4.6 mph - N/A   Mostly Cloudy
4:53 PM 70.0 °F 64.9 °F 84% 29.80 in 7.0 mi North 3.5 mph - 0.00 in Rain Light Rain
5:53 PM 68.0 °F 66.9 °F 96% 29.78 in 4.0 mi Calm Calm - 0.04 in Rain Light Rain
6:32 PM 66.2 °F 66.2 °F 100% 29.80 in 2.5 mi Calm Calm - 0.04 in Rain Rain
6:53 PM 66.9 °F 66.9 °F 100% 29.78 in 2.5 mi East 3.5 mph - 0.08 in Rain Rain
7:22 PM 66.2 °F 66.2 °F 100% 29.80 in 3.0 mi Calm Calm - 0.06 in Rain Light Rain
7:53 PM 66.9 °F 66.9 °F 100% 29.78 in 3.0 mi ENE 3.5 mph - 0.10 in Rain Rain
7:57 PM 66.2 °F 66.2 °F 100% 29.80 in 2.5 mi Calm Calm - 0.02 in Rain Rain
8:05 PM 66.2 °F 66.2 °F 100% 29.80 in 3.0 mi Calm Calm - 0.04 in Rain Rain
8:21 PM 66.2 °F 66.2 °F 100% 29.79 in 3.0 mi East 4.6 mph - 0.09 in Rain Rain
8:28 PM 66.2 °F 66.2 °F 100% 29.79 in 2.5 mi East 3.5 mph - 0.12 in Rain Rain
8:37 PM 66.2 °F 66.2 °F 100% 29.79 in 3.0 mi East 5.8 mph - 0.16 in Rain Heavy Rain
8:53 PM 66.0 °F 66.0 °F 100% 29.78 in 4.0 mi ESE 3.5 mph - 0.21 in Rain Light Rain
9:20 PM 66.2 °F 66.2 °F 100% 29.80 in 2.5 mi Calm Calm - 0.14 in Rain Heavy Rain
9:34 PM 66.2 °F 66.2 °F 100% 29.80 in 3.0 mi ENE 3.5 mph - 0.20 in Rain Rain
9:53 PM 66.0 °F 66.0 °F 100% 29.78 in 3.0 mi Calm Calm - 0.26 in Rain Rain
10:09 PM 66.2 °F 66.2 °F 100% 29.79 in 2.5 mi NNE 4.6 mph - 0.06 in Rain Heavy Rain
10:19 PM 66.2 °F 66.2 °F 100% 29.79 in 2.5 mi NNE 4.6 mph - 0.11 in Rain Rain
10:24 PM 66.2 °F 66.2 °F 100% 29.79 in 3.0 mi NE 4.6 mph - 0.12 in Rain Rain
10:53 PM 66.0 °F 66.0 °F 100% 29.77 in 3.0 mi NE 3.5 mph - 0.22 in Rain Heavy Rain
10:56 PM 66.2 °F 66.2 °F 100% 29.79 in 2.5 mi NNE 6.9 mph - 0.01 in Rain Rain
11:06 PM 66.2 °F 66.2 °F 100% 29.78 in 2.5 mi ENE 5.8 mph - 0.06 in Rain Heavy Rain
11:21 PM 66.2 °F 66.2 °F 100% 29.78 in 4.0 mi ENE 5.8 mph - 0.10 in Rain Light Rain
11:53 PM 66.0 °F 66.0 °F 100% 29.75 in 4.0 mi ENE 4.6 mph - 0.18 in Rain Rain